COSMOS 2219

Last updated on Sun Jan 18 2026 00:02:13 GMT+0000 (Coordinated Universal Time)

1 22219U 92076A 26017.58924682 -.00000093 00000+0 -24219-4 0 9995 2 22219 71.0618 124.8950 0020773 277.7632 82.1132 14.14081330711150
UTC large
Height (km)
Speed (km/s)
/
Latitude / Longitude
Inclination (degrees)
Orbital Period (minutes)
Azimuth
Elevation
Range (km)
Doppler Factor

Next 0 passes for location: London (51.5072 / 0.1276)

Sorry there are no passes over London.